| time (UTC) | temp F | wind direction | speed MPH | gust MPH | rain 1hr in | rain 24hr in | rain mn in | humidity % | barometer mb |
| 20260503172520 | 52 | 300 | 3.0 | 5.0 | 0.00 | 0.00 | 0.00 | 97 | 1009.8 |
| 20260503172019 | 52 | 294 | 2.0 | 5.0 | 0.00 | 0.00 | 0.00 | 97 | 1009.8 |
| 20260503171519 | 53 | 285 | 3.0 | 4.0 | 0.00 | 0.00 | 0.00 | 97 | 1009.8 |
| 20260503171021 | 53 | 279 | 1.0 | 4.0 | 0.00 | 0.00 | 0.00 | 98 | 1009.8 |
| 20260503170519 | 53 | 281 | 1.0 | 4.0 | 0.00 | 0.00 | 0.00 | 97 | 1009.7 |
| 20260503151012 | 50 | 360 | 1.0 | 4.0 | 0.00 | 0.00 | 0.00 | 97 | 1009.6 |
| 20260503150511 | 50 | 360 | 3.0 | 4.0 | 0.00 | 0.00 | 0.00 | 97 | 1009.6 |
| 20260503131004 | 48 | 331 | 0.0 | 1.0 | 0.00 | 0.00 | 0.00 | 97 | 1009.2 |
| 20260503130503 | 48 | 331 | 0.0 | 1.0 | 0.00 | 0.00 | 0.00 | 97 | 1009.3 |
| 20260503110553 | 48 | 130 | 0.0 | 2.0 | 0.00 | 0.00 | 0.00 | 96 | 1009.8 |
| 20260503110107 | 48 | 130 | 0.0 | 1.0 | 0.00 | 0.00 | 0.00 | 96 | 1009.9 |
| 20260503081531 | 49 | 334 | 0.0 | 1.0 | 0.00 | 0.00 | 0.00 | 96 | 1011.2 |
| 20260503081032 | 49 | 334 | 0.0 | 3.0 | 0.00 | 0.00 | 0.00 | 96 | 1011.2 |
| 20260503080530 | 49 | 334 | 1.0 | 3.0 | 0.00 | 0.00 | 0.00 | 96 | 1011.3 |
| 20260503072526 | 50 | 90 | 0.0 | 3.0 | 0.00 | 0.00 | 0.00 | 96 | 1011.5 |
| 20260503072025 | 50 | 90 | 1.0 | 4.0 | 0.00 | 0.00 | 0.00 | 96 | 1011.6 |
| 20260503071524 | 50 | 90 | 0.0 | 4.0 | 0.00 | 0.00 | 0.00 | 97 | 1011.6 |
| 20260503071025 | 50 | 89 | 3.0 | 4.0 | 0.00 | 0.00 | 0.00 | 96 | 1011.6 |
| 20260503070520 | 50 | 89 | 2.0 | 4.0 | 0.00 | 0.00 | 0.00 | 96 | 1011.6 |
| 20260503055016 | 51 | 5 | 2.0 | 5.0 | 0.00 | 0.00 | 0.00 | 96 | 1011.9 |
| 20260503054516 | 51 | 5 | 3.0 | 5.0 | 0.00 | 0.00 | 0.00 | 96 | 1011.9 |
| 20260503054016 | 51 | 32 | 2.0 | 4.0 | 0.00 | 0.00 | 0.00 | 96 | 1011.9 |
| 20260503053516 | 51 | 114 | 2.0 | 4.0 | 0.00 | 0.00 | 0.00 | 96 | 1011.9 |
| 20260503053020 | 51 | 113 | 1.0 | 4.0 | 0.00 | 0.00 | 0.00 | 96 | 1011.9 |
| 20260503052516 | 51 | 76 | 0.0 | 3.0 | 0.00 | 0.00 | 0.00 | 96 | 1011.8 |
| 20260503052021 | 51 | 76 | 0.0 | 4.0 | 0.00 | 0.00 | 0.00 | 96 | 1011.9 |
| 20260503051515 | 51 | 79 | 1.0 | 5.0 | 0.00 | 0.00 | 0.00 | 96 | 1011.9 |
| 20260503051015 | 51 | 338 | 1.0 | 5.0 | 0.00 | 0.00 | 0.00 | 96 | 1011.8 |
| 20260503050515 | 51 | 336 | 0.0 | 8.0 | 0.00 | 0.00 | 0.00 | 96 | 1011.8 |
| 20260503050023 | 51 | 336 | 0.0 | 9.0 | 0.00 | 0.00 | 0.00 | 96 | 1011.8 |
| 20260503045515 | 51 | 348 | 5.0 | 12.0 | 0.00 | 0.00 | 0.00 | 96 | 1011.8 |
| 20260503045018 | 51 | 355 | 8.0 | 12.0 | 0.00 | 0.00 | 0.00 | 96 | 1011.9 |
| 20260503044518 | 51 | 338 | 4.0 | 11.0 | 0.00 | 0.00 | 0.00 | 96 | 1011.8 |
| 20260503044014 | 51 | 330 | 7.0 | 11.0 | 0.00 | 0.00 | 0.00 | 96 | 1011.9 |
| 20260503043514 | 52 | 342 | 6.0 | 12.0 | 0.00 | 0.00 | 0.00 | 96 | 1011.9 |
| 20260503043014 | 52 | 360 | 7.0 | 14.0 | 0.00 | 0.00 | 0.00 | 96 | 1011.9 |
| 20260503042514 | 52 | 338 | 9.0 | 14.0 | 0.00 | 0.00 | 0.00 | 96 | 1011.9 |
| 20260503042014 | 52 | 336 | 9.0 | 15.0 | 0.00 | 0.00 | 0.00 | 96 | 1011.9 |
| 20260503041515 | 52 | 325 | 10.0 | 15.0 | 0.00 | 0.00 | 0.00 | 96 | 1011.9 |
| 20260503041014 | 52 | 335 | 12.0 | 17.0 | 0.00 | 0.00 | 0.00 | 96 | 1011.9 |
| 20260503040515 | 52 | 344 | 11.0 | 17.0 | 0.00 | 0.00 | 0.00 | 97 | 1011.9 |
| 20260503040013 | 52 | 350 | 11.0 | 16.0 | 0.00 | 0.00 | 0.00 | 97 | 1011.8 |
| 20260503035513 | 51 | 350 | 12.0 | 16.0 | 0.00 | 0.00 | 0.00 | 96 | 1011.8 |
| 20260503035013 | 51 | 338 | 10.0 | 16.0 | 0.00 | 0.00 | 0.00 | 96 | 1011.9 |
| 20260503034513 | 51 | 327 | 11.0 | 15.0 | 0.00 | 0.00 | 0.00 | 96 | 1011.8 |
| 20260503034013 | 51 | 346 | 11.0 | 17.0 | 0.00 | 0.00 | 0.00 | 96 | 1011.8 |
| 20260503033512 | 51 | 333 | 13.0 | 17.0 | 0.00 | 0.00 | 0.00 | 96 | 1011.8 |
| 20260503033012 | 51 | 333 | 13.0 | 17.0 | 0.00 | 0.00 | 0.00 | 96 | 1011.7 |
| 20260503032516 | 52 | 336 | 13.0 | 17.0 | 0.00 | 0.00 | 0.00 | 96 | 1011.7 |
| 20260503032012 | 51 | 339 | 13.0 | 16.0 | 0.00 | 0.00 | 0.00 | 96 | 1011.7 |
| 20260503031512 | 51 | 342 | 13.0 | 16.0 | 0.00 | 0.00 | 0.00 | 96 | 1011.7 |
| 20260503031013 | 52 | 323 | 12.0 | 15.0 | 0.00 | 0.00 | 0.00 | 95 | 1011.7 |
| 20260503030511 | 52 | 342 | 10.0 | 13.0 | 0.00 | 0.00 | 0.00 | 96 | 1011.7 |
| 20260503030011 | 52 | 327 | 10.0 | 13.0 | 0.00 | 0.00 | 0.00 | 95 | 1011.8 |
| 20260503025511 | 52 | 344 | 9.0 | 13.0 | 0.00 | 0.00 | 0.00 | 96 | 1011.8 |
| 20260503025011 | 52 | 338 | 9.0 | 14.0 | 0.00 | 0.00 | 0.00 | 96 | 1011.8 |
| 20260503024513 | 52 | 332 | 8.0 | 15.0 | 0.00 | 0.00 | 0.00 | 96 | 1011.8 |
| 20260503024011 | 52 | 329 | 11.0 | 17.0 | 0.00 | 0.00 | 0.00 | 96 | 1011.7 |
| 20260503023513 | 51 | 333 | 13.0 | 17.0 | 0.00 | 0.00 | 0.00 | 96 | 1011.7 |
| 20260503023010 | 52 | 329 | 14.0 | 18.0 | 0.00 | 0.00 | 0.00 | 96 | 1011.6 |
| 20260503022510 | 52 | 331 | 14.0 | 19.0 | 0.00 | 0.00 | 0.00 | 95 | 1011.4 |
| 20260503022009 | 52 | 349 | 12.0 | 19.0 | 0.00 | 0.00 | 0.00 | 96 | 1011.3 |
| 20260503021518 | 52 | 331 | 12.0 | 20.0 | 0.00 | 0.00 | 0.00 | 95 | 1011.3 |
| 20260503021008 | 52 | 340 | 15.0 | 20.0 | 0.00 | 0.00 | 0.00 | 95 | 1011.3 |
| 20260503020507 | 52 | 328 | 14.0 | 20.0 | 0.00 | 0.00 | 0.00 | 95 | 1011.4 |
| 20260503020006 | 52 | 333 | 15.0 | 22.0 | 0.00 | 0.00 | 0.00 | 95 | 1011.5 |
| 20260503015508 | 52 | 338 | 15.0 | 22.0 | 0.00 | 0.00 | 0.00 | 95 | 1011.5 |
| 20260503015006 | 52 | 339 | 17.0 | 22.0 | 0.00 | 0.00 | 0.00 | 95 | 1011.5 |
| 20260503014504 | 52 | 334 | 17.0 | 23.0 | 0.00 | 0.00 | 0.00 | 94 | 1011.5 |
| 20260503014005 | 53 | 340 | 17.0 | 23.0 | 0.00 | 0.00 | 0.00 | 94 | 1011.5 |
| 20260503013504 | 53 | 330 | 17.0 | 22.0 | 0.00 | 0.00 | 0.00 | 94 | 1011.6 |
| 20260503013003 | 53 | 330 | 14.0 | 24.0 | 0.00 | 0.00 | 0.00 | 94 | 1011.7 |
| 20260503012502 | 53 | 344 | 16.0 | 24.0 | 0.00 | 0.00 | 0.00 | 94 | 1011.7 |
| 20260503012002 | 53 | 337 | 16.0 | 21.0 | 0.00 | 0.00 | 0.00 | 94 | 1011.7 |
| 20260503011503 | 53 | 342 | 16.0 | 21.0 | 0.00 | 0.00 | 0.00 | 94 | 1011.9 |
| 20260503011002 | 53 | 341 | 14.0 | 18.0 | 0.00 | 0.00 | 0.00 | 94 | 1011.9 |
| 20260503010601 | 53 | 337 | 13.0 | 21.0 | 0.00 | 0.00 | 0.00 | 95 | 1011.9 |
| 20260503010100 | 52 | 329 | 15.0 | 21.0 | 0.00 | 0.00 | 0.00 | 94 | 1011.9 |
| 20260503005600 | 52 | 327 | 14.0 | 20.0 | 0.00 | 0.00 | 0.00 | 94 | 1011.8 |
| 20260503005059 | 53 | 341 | 15.0 | 19.0 | 0.00 | 0.00 | 0.00 | 94 | 1011.9 |
| 20260503004559 | 53 | 360 | 15.0 | 19.0 | 0.00 | 0.00 | 0.00 | 94 | 1012.0 |
| 20260503004059 | 53 | 339 | 14.0 | 17.0 | 0.00 | 0.00 | 0.00 | 95 | 1011.9 |
| 20260503003600 | 52 | 360 | 14.0 | 17.0 | 0.00 | 0.00 | 0.00 | 95 | 1011.8 |
| 20260503003056 | 52 | 321 | 13.0 | 17.0 | 0.00 | 0.00 | 0.00 | 95 | 1011.8 |
| 20260503002558 | 52 | 332 | 14.0 | 19.0 | 0.00 | 0.00 | 0.00 | 95 | 1011.8 |
| 20260503002056 | 52 | 332 | 15.0 | 19.0 | 0.00 | 0.00 | 0.00 | 94 | 1011.9 |
| 20260503001607 | 52 | 336 | 14.0 | 21.0 | 0.00 | 0.00 | 0.00 | 94 | 1011.9 |
| 20260503001055 | 52 | 329 | 15.0 | 21.0 | 0.00 | 0.00 | 0.00 | 94 | 1011.8 |
| 20260503000555 | 52 | 327 | 14.0 | 20.0 | 0.00 | 0.00 | 0.00 | 94 | 1011.9 |
| 20260503000054 | 52 | 355 | 15.0 | 22.0 | 0.00 | 0.00 | 0.00 | 95 | 1011.9 |
| 20260502235552 | 52 | 344 | 15.0 | 22.0 | 0.00 | 0.00 | 0.00 | 95 | 1012.0 |
| 20260502235052 | 52 | 338 | 16.0 | 21.0 | 0.00 | 0.00 | 0.00 | 95 | 1012.0 |
| 20260502234553 | 52 | 338 | 16.0 | 19.0 | 0.00 | 0.00 | 0.00 | 95 | 1012.1 |
| 20260502234052 | 52 | 329 | 15.0 | 19.0 | 0.00 | 0.00 | 0.00 | 95 | 1012.2 |
| 20260502233551 | 52 | 335 | 15.0 | 18.0 | 0.00 | 0.00 | 0.00 | 95 | 1012.2 |
| 20260502233052 | 52 | 330 | 15.0 | 20.0 | 0.00 | 0.00 | 0.00 | 95 | 1012.3 |
| 20260502232552 | 52 | 335 | 15.0 | 20.0 | 0.00 | 0.00 | 0.00 | 95 | 1012.3 |
| 20260502232049 | 52 | 336 | 15.0 | 19.0 | 0.00 | 0.00 | 0.00 | 95 | 1012.4 |
| 20260502231548 | 52 | 342 | 15.0 | 18.0 | 0.00 | 0.00 | 0.00 | 95 | 1012.5 |
| 20260502231048 | 52 | 338 | 13.0 | 19.0 | 0.00 | 0.00 | 0.00 | 95 | 1012.6 |
| 20260502230548 | 52 | 340 | 14.0 | 19.0 | 0.00 | 0.00 | 0.00 | 95 | 1012.6 |
| 20260502230047 | 52 | 333 | 14.0 | 17.0 | 0.00 | 0.00 | 0.00 | 95 | 1012.6 |
| 20260502225546 | 52 | 332 | 14.0 | 17.0 | 0.00 | 0.00 | 0.00 | 95 | 1012.7 |
| 20260502225045 | 52 | 330 | 14.0 | 17.0 | 0.00 | 0.00 | 0.00 | 95 | 1012.7 |
| 20260502224547 | 52 | 336 | 15.0 | 17.0 | 0.00 | 0.00 | 0.00 | 95 | 1012.8 |
| 20260502224044 | 52 | 336 | 13.0 | 16.0 | 0.00 | 0.00 | 0.00 | 95 | 1012.9 |
| 20260502223544 | 52 | 336 | 13.0 | 16.0 | 0.00 | 0.00 | 0.00 | 95 | 1012.9 |
| 20260502223044 | 52 | 336 | 14.0 | 16.0 | 0.00 | 0.00 | 0.00 | 95 | 1013.0 |
| 20260502222545 | 52 | 331 | 13.0 | 16.0 | 0.00 | 0.00 | 0.00 | 95 | 1013.1 |
| 20260502222042 | 52 | 331 | 13.0 | 16.0 | 0.00 | 0.00 | 0.00 | 95 | 1013.1 |
| 20260502221543 | 52 | 332 | 13.0 | 16.0 | 0.00 | 0.00 | 0.00 | 95 | 1013.1 |
| 20260502221045 | 52 | 325 | 13.0 | 15.0 | 0.00 | 0.00 | 0.00 | 95 | 1013.2 |
| 20260502220541 | 52 | 330 | 12.0 | 14.0 | 0.00 | 0.00 | 0.00 | 95 | 1013.3 |
| 20260502220041 | 52 | 326 | 12.0 | 14.0 | 0.00 | 0.00 | 0.00 | 95 | 1013.3 |
| 20260502215541 | 52 | 333 | 12.0 | 14.0 | 0.00 | 0.00 | 0.00 | 95 | 1013.3 |
| 20260502215042 | 52 | 325 | 10.0 | 13.0 | 0.00 | 0.00 | 0.00 | 95 | 1013.3 |
| 20260502214542 | 51 | 328 | 10.0 | 13.0 | 0.00 | 0.00 | 0.00 | 95 | 1013.3 |
| 20260502214040 | 51 | 327 | 10.0 | 12.0 | 0.00 | 0.00 | 0.00 | 95 | 1013.4 |
| 20260502213539 | 51 | 331 | 10.0 | 13.0 | 0.00 | 0.00 | 0.00 | 95 | 1013.3 |
| 20260502213039 | 51 | 333 | 10.0 | 13.0 | 0.00 | 0.00 | 0.00 | 95 | 1013.3 |
| 20260502212539 | 51 | 329 | 10.0 | 13.0 | 0.00 | 0.00 | 0.00 | 95 | 1013.4 |
| 20260502212038 | 51 | 324 | 9.0 | 11.0 | 0.00 | 0.00 | 0.00 | 95 | 1013.4 |
| 20260502211538 | 51 | 325 | 9.0 | 13.0 | 0.00 | 0.00 | 0.00 | 95 | 1013.5 |
| 20260502211040 | 51 | 327 | 9.0 | 13.0 | 0.00 | 0.00 | 0.00 | 95 | 1013.6 |
| 20260502210536 | 51 | 326 | 10.0 | 13.0 | 0.00 | 0.00 | 0.00 | 95 | 1013.7 |
| 20260502210035 | 51 | 328 | 10.0 | 13.0 | 0.00 | 0.00 | 0.00 | 95 | 1013.7 |
| 20260502205535 | 51 | 325 | 11.0 | 13.0 | 0.00 | 0.00 | 0.00 | 95 | 1013.7 |
| 20260502205036 | 51 | 325 | 11.0 | 12.0 | 0.00 | 0.00 | 0.00 | 94 | 1013.7 |
| 20260502204534 | 51 | 323 | 10.0 | 13.0 | 0.00 | 0.00 | 0.00 | 94 | 1013.9 |
| 20260502204035 | 51 | 320 | 11.0 | 13.0 | 0.00 | 0.00 | 0.00 | 94 | 1013.9 |
| 20260502203533 | 51 | 323 | 10.0 | 12.0 | 0.00 | 0.00 | 0.00 | 94 | 1014.0 |
| 20260502203032 | 51 | 315 | 10.0 | 11.0 | 0.00 | 0.00 | 0.00 | 94 | 1014.1 |
| 20260502202533 | 51 | 319 | 9.0 | 12.0 | 0.00 | 0.00 | 0.00 | 94 | 1014.0 |
| 20260502202032 | 51 | 327 | 10.0 | 13.0 | 0.00 | 0.00 | 0.00 | 94 | 1014.1 |
| 20260502201539 | 51 | 324 | 10.0 | 13.0 | 0.00 | 0.00 | 0.00 | 94 | 1014.1 |
| 20260502201033 | 51 | 321 | 11.0 | 13.0 | 0.00 | 0.00 | 0.00 | 94 | 1014.1 |
| 20260502200534 | 51 | 323 | 10.0 | 14.0 | 0.00 | 0.00 | 0.00 | 94 | 1014.1 |
| 20260502200031 | 51 | 314 | 11.0 | 14.0 | 0.00 | 0.00 | 0.00 | 94 | 1014.2 |
| 20260502195530 | 51 | 324 | 11.0 | 13.0 | 0.00 | 0.00 | 0.00 | 93 | 1014.3 |
| 20260502195029 | 51 | 327 | 11.0 | 13.0 | 0.00 | 0.00 | 0.00 | 93 | 1014.3 |
| 20260502194529 | 51 | 328 | 11.0 | 12.0 | 0.00 | 0.00 | 0.00 | 93 | 1014.5 |
| 20260502194029 | 51 | 325 | 10.0 | 14.0 | 0.00 | 0.00 | 0.00 | 93 | 1014.7 |
| 20260502193529 | 52 | 333 | 9.0 | 15.0 | 0.00 | 0.00 | 0.00 | 93 | 1014.7 |
| 20260502193029 | 51 | 323 | 14.0 | 15.0 | 0.00 | 0.00 | 0.00 | 93 | 1014.2 |
| 20260502192528 | 52 | 329 | 13.0 | 15.0 | 0.00 | 0.00 | 0.00 | 93 | 1014.4 |
| 20260502192027 | 51 | 325 | 12.0 | 14.0 | 0.00 | 0.00 | 0.00 | 92 | 1014.6 |
| 20260502191527 | 52 | 324 | 13.0 | 15.0 | 0.00 | 0.00 | 0.00 | 92 | 1014.6 |
| 20260502191028 | 51 | 334 | 12.0 | 16.0 | 0.00 | 0.00 | 0.00 | 92 | 1014.7 |
| 20260502190526 | 52 | 331 | 13.0 | 17.0 | 0.00 | 0.00 | 0.00 | 91 | 1014.7 |
| 20260502190031 | 52 | 343 | 14.0 | 19.0 | 0.00 | 0.00 | 0.00 | 91 | 1014.8 |
| 20260502185525 | 52 | 337 | 15.0 | 19.0 | 0.00 | 0.00 | 0.00 | 91 | 1014.8 |
| 20260502185025 | 52 | 336 | 14.0 | 18.0 | 0.00 | 0.00 | 0.00 | 91 | 1014.7 |
| 20260502184534 | 52 | 335 | 15.0 | 18.0 | 0.00 | 0.00 | 0.00 | 91 | 1014.8 |
| 20260502184025 | 51 | 321 | 15.0 | 18.0 | 0.00 | 0.00 | 0.00 | 91 | 1015.0 |
| 20260502183524 | 52 | 325 | 14.0 | 17.0 | 0.00 | 0.00 | 0.00 | 90 | 1015.1 |
| 20260502183030 | 52 | 333 | 14.0 | 19.0 | 0.00 | 0.00 | 0.00 | 90 | 1015.3 |
| 20260502182526 | 52 | 346 | 14.0 | 19.0 | 0.00 | 0.00 | 0.00 | 91 | 1015.3 |
| 20260502182022 | 52 | 329 | 13.0 | 19.0 | 0.00 | 0.00 | 0.00 | 91 | 1015.2 |
| 20260502181521 | 51 | 327 | 13.0 | 18.0 | 0.00 | 0.00 | 0.00 | 91 | 1015.1 |
| 20260502181020 | 51 | 335 | 12.0 | 16.0 | 0.00 | 0.00 | 0.00 | 92 | 1015.1 |
| 20260502180524 | 51 | 321 | 12.0 | 18.0 | 0.00 | 0.00 | 0.00 | 92 | 1015.0 |